FW4041 Weather Reports


time (UTC)temp
F
wind
direction
speed
knots
gust
knots
rain 1hr
in
rain 24hr
in
rain mn
in
humidity
%
barometer
mb
20260906130029 64 233 0.0 0.0 0.00 0.00 0.00 97 1021.5
20260906124528 64 233 0.0 0.0 0.00 0.00 0.00 96 1021.3
20260906123034 63 233 0.0 0.0 0.00 0.00 0.00 96 1021.0
20260906121540 63 233 0.0 0.0 0.00 0.00 0.00 96 1021.1
20260906120019 63 233 0.0 0.0 0.00 0.00 0.00 96 1021.0
20260906114530 63 233 0.0 0.0 0.00 0.00 0.00 96 1020.6
20260906113043 63 233 0.0 0.0 0.00 0.00 0.00 96 1020.4
20260906111533 63 233 0.0 0.0 0.00 0.00 0.00 96 1020.3
20260906110019 63 233 0.0 0.0 0.00 0.00 0.00 96 1020.2
20260906104529 63 233 0.0 0.0 0.00 0.00 0.00 96 1020.1
20260906103002 63 233 0.0 0.0 0.00 0.00 0.00 96 1020.1
20260906101508 63 233 0.0 0.0 0.00 0.00 0.00 96 1020.1
20260906100019 63 233 0.0 0.0 0.00 0.00 0.00 96 1020.1
20260906094518 63 233 0.0 0.0 0.00 0.00 0.00 95 1020.0
20260906093027 63 233 0.0 0.0 0.00 0.00 0.00 95 1020.0
20260906091505 63 233 0.0 0.0 0.00 0.00 0.00 95 1019.8
20260906090010 63 233 0.0 0.0 0.00 0.00 0.00 95 1019.8
20260906084514 63 233 0.0 0.0 0.00 0.00 0.00 95 1020.0
20260906083019 63 233 0.0 0.0 0.00 0.00 0.00 95 1019.9
20260906081539 63 233 0.0 0.0 0.00 0.00 0.00 95 1019.9
20260906080032 63 233 0.0 0.0 0.00 0.00 0.00 95 1019.8
20260906074519 63 233 0.0 0.0 0.00 0.00 0.00 95 1019.8
20260906073016 63 233 0.0 0.0 0.00 0.00 0.00 95 1019.8
20260906071524 63 233 0.0 0.0 0.00 0.00 0.00 95 1019.8
20260906070027 63 233 0.0 0.0 0.00 0.00 0.00 95 1019.8
20260906064531 63 233 0.0 0.0 0.00 0.00 0.00 94 1019.9
20260906063014 63 233 0.0 0.0 0.00 0.00 0.00 94 1019.9
20260906061518 63 233 0.0 0.0 0.00 0.00 0.00 94 1019.9
20260906060028 64 233 0.0 0.0 0.00 0.00 0.00 94 1019.8
20260906054532 64 233 0.0 0.0 0.00 0.00 0.00 94 1019.8
20260906053035 64 233 0.0 0.0 0.00 0.00 0.00 94 1019.8
20260906051517 64 233 0.0 0.0 0.00 0.00 0.00 93 1019.8
20260906050032 64 233 0.0 0.0 0.00 0.00 0.00 93 1019.6
20260906044534 64 233 0.0 0.0 0.00 0.00 0.00 93 1019.5
20260906043031 64 233 0.0 0.0 0.00 0.00 0.00 92 1019.5
20260906041534 64 233 0.0 0.0 0.00 0.00 0.00 91 1019.1
20260906040024 65 233 0.0 0.0 0.00 0.00 0.00 91 1019.0
20260906034523 65 233 0.0 0.0 0.00 0.00 0.00 91 1019.0
20260906033039 65 238 0.0 0.0 0.00 0.00 0.00 91 1019.1
20260906031531 66 238 0.0 0.0 0.00 0.00 0.00 92 1019.1
20260906030030 66 202 0.0 0.0 0.00 0.00 0.00 92 1018.9
20260906024517 67 202 0.0 0.0 0.00 0.00 0.00 91 1018.8
20260906023024 67 202 0.0 0.0 0.00 0.00 0.00 90 1018.7
20260906021528 68 202 0.0 0.0 0.00 0.00 0.00 90 1018.5
20260906020010 69 202 0.0 0.0 0.00 0.00 0.00 89 1018.4
20260906014518 69 200 0.0 0.0 0.00 0.00 0.00 89 1018.5
20260906013008 69 199 0.0 0.0 0.00 0.00 0.00 89 1018.5
20260906011503 70 176 0.0 0.0 0.00 0.00 0.00 89 1018.5
20260906010006 70 228 0.0 0.0 0.00 0.00 0.00 89 1018.5
20260906004529 70 158 0.0 0.0 0.00 0.00 0.00 90 1018.6
20260906003016 70 164 0.0 0.0 0.00 0.00 0.00 90 1018.4
20260906001503 71 193 0.0 0.0 0.00 0.00 0.00 90 1018.6
20260906000004 71 201 0.0 1.7 0.00 0.00 0.00 89 1018.5
20260905234507 72 219 0.0 0.0 0.00 0.00 0.00 88 1018.2
20260905233035 72 195 0.0 0.0 0.00 0.00 0.00 88 1018.4
20260905231518 73 200 0.0 1.7 0.00 0.00 0.00 87 1018.4
20260905230004 74 319 0.0 1.7 0.00 0.00 0.00 86 1018.2
20260905224508 74 117 0.0 0.9 0.00 0.00 0.00 85 1018.1
20260905223007 74 65 0.0 1.7 0.00 0.00 0.00 85 1018.1
20260905221517 74 236 0.0 0.9 0.00 0.00 0.00 85 1018.0
20260905220023 74 110 0.0 4.3 0.00 0.00 0.00 84 1017.9
20260905214503 75 94 0.0 5.2 0.00 0.00 0.00 84 1017.6
20260905213035 76 44 1.7 5.2 0.00 0.00 0.00 82 1017.7
20260905211511 77 354 2.6 7.8 0.00 0.00 0.00 82 1017.4
20260905210017 77 319 0.0 2.6 0.00 0.00 0.00 82 1017.4
20260905204524 77 167 0.0 7.0 0.00 0.00 0.00 83 1017.5
20260905203004 76 314 0.0 5.2 0.00 0.00 0.00 85 1017.6
20260905201518 76 262 0.0 2.6 0.00 0.00 0.00 83 1017.6
20260905200016 77 198 0.0 3.5 0.00 0.00 0.00 82 1017.5
20260905194522 78 155 0.0 1.7 0.00 0.00 0.00 81 1017.5
20260905193029 78 233 0.0 0.0 0.00 0.00 0.00 81 1017.6
20260905191530 78 303 0.0 4.3 0.00 0.00 0.00 79 1017.5
20260905190010 79 205 0.0 3.5 0.00 0.00 0.00 79 1017.5
20260905184535 79 300 0.0 2.6 0.00 0.00 0.00 76 1017.6
20260905183024 79 91 0.0 3.5 0.00 0.00 0.00 78 1017.6
20260905181529 78 333 0.9 2.6 0.00 0.00 0.00 78 1017.7
20260905180032 78 26 0.0 5.2 0.00 0.00 0.00 80 1017.8
20260905174513 78 175 0.0 6.1 0.00 0.00 0.00 79 1017.8
20260905173025 77 309 0.9 3.5 0.00 0.00 0.00 83 1017.9
20260905171537 76 278 0.0 5.2 0.00 0.00 0.00 83 1017.9
20260905170003 76 314 0.0 2.6 0.00 0.00 0.00 85 1017.9
20260905164503 76 227 0.0 1.7 0.00 0.00 0.00 84 1018.0
20260905163002 75 265 0.0 1.7 0.00 0.00 0.00 87 1018.0
20260905161502 75 231 0.0 0.9 0.00 0.00 0.00 88 1017.9
20260905160010 75 261 0.0 0.9 0.00 0.00 0.00 88 1018.0
20260905154505 73 316 0.0 1.7 0.00 0.00 0.00 91 1017.8
20260905153017 72 313 0.9 3.5 0.00 0.01 0.00 93 1018.0
20260905151506 71 228 0.0 0.0 0.00 0.15 0.00 95 1017.9
20260905150002 70 174 0.0 0.0 0.00 0.35 0.00 95 1017.7
20260905144506 70 313 0.0 1.7 0.00 0.35 0.00 96 1017.4
20260905143003 70 314 0.0 0.0 0.00 0.35 0.00 96 1017.2
20260905141505 70 318 0.0 0.0 0.00 0.35 0.00 97 1016.9
20260905140007 70 319 0.0 0.9 0.00 0.35 0.00 97 1016.7
20260905134507 70 264 0.0 0.0 0.00 0.38 0.00 97 1017.0
20260905133010 70 319 0.0 0.0 0.00 0.38 0.00 97 1017.1
20260905131506 70 173 0.0 0.0 0.00 0.38 0.00 97 1017.0